| time (UTC) | temp C | wind direction | speed KPH | gust KPH | rain 1hr cm | rain 24hr cm | rain mn cm | humidity % | barometer mb |
| 20260505035433 | 18 | 0.0 | 0.0 | 0.00 | 0.00 | 0.00 | 54 | 1004.1 | |
| 20260505034434 | 18 | 0.0 | 0.0 | 0.00 | 0.00 | 0.00 | 53 | 1004.0 | |
| 20260505033433 | 18 | 0.0 | 0.0 | 0.00 | 0.00 | 0.00 | 52 | 1004.0 | |
| 20260505032454 | 18 | 0.0 | 0.0 | 0.00 | 0.00 | 0.00 | 53 | 1004.0 | |
| 20260505031433 | 18 | 0.0 | 0.0 | 0.00 | 0.00 | 0.00 | 53 | 1003.9 | |
| 20260505030514 | 18 | 0.0 | 0.0 | 0.00 | 0.00 | 0.00 | 53 | 1003.9 | |
| 20260505025433 | 17 | 0.0 | 0.0 | 0.00 | 0.00 | 0.00 | 53 | 1004.0 | |
| 20260505024433 | 17 | 0.0 | 0.0 | 0.00 | 0.00 | 0.00 | 53 | 1004.0 | |
| 20260505023433 | 17 | 0.0 | 0.0 | 0.00 | 0.00 | 0.00 | 53 | 1004.1 | |
| 20260505022434 | 17 | 0.0 | 0.0 | 0.00 | 0.00 | 0.00 | 53 | 1004.3 | |
| 20260505021433 | 16 | 0.0 | 0.0 | 0.00 | 0.00 | 0.00 | 55 | 1004.1 | |
| 20260505020434 | 16 | 0.0 | 0.0 | 0.00 | 0.00 | 0.00 | 55 | 1004.3 | |
| 20260505015433 | 16 | 0.0 | 0.0 | 0.00 | 0.00 | 0.00 | 56 | 1004.1 | |
| 20260505014434 | 16 | 0.0 | 0.0 | 0.00 | 0.03 | 0.00 | 55 | 1004.2 | |
| 20260505013433 | 16 | 0.0 | 0.0 | 0.00 | 0.03 | 0.00 | 58 | 1004.2 | |
| 20260505012434 | 15 | 0.0 | 0.0 | 0.00 | 0.03 | 0.00 | 66 | 1004.2 | |
| 20260505011434 | 14 | 0.0 | 0.0 | 0.00 | 0.03 | 0.00 | 70 | 1004.3 | |
| 20260505010454 | 14 | 0.0 | 0.0 | 0.00 | 0.03 | 0.00 | 67 | 1004.2 | |
| 20260505005433 | 15 | 0.0 | 0.0 | 0.00 | 0.03 | 0.00 | 65 | 1004.2 | |
| 20260505004454 | 15 | 0.0 | 0.0 | 0.00 | 0.03 | 0.00 | 63 | 1004.2 | |
| 20260505003453 | 16 | 0.0 | 0.0 | 0.00 | 0.03 | 0.00 | 60 | 1004.2 | |
| 20260505002454 | 17 | 0.0 | 0.0 | 0.00 | 0.03 | 0.00 | 56 | 1004.0 | |
| 20260505001433 | 18 | 0.0 | 0.0 | 0.00 | 0.03 | 0.00 | 51 | 1004.1 | |
| 20260505000514 | 19 | 0.0 | 0.0 | 0.00 | 0.03 | 0.00 | 46 | 1004.0 | |
| 20260504235433 | 20 | 0.0 | 0.0 | 0.00 | 0.03 | 0.00 | 43 | 1004.1 | |
| 20260504234434 | 21 | 0.0 | 0.0 | 0.00 | 0.03 | 0.00 | 40 | 1004.0 | |
| 20260504233453 | 21 | 0.0 | 0.0 | 0.00 | 0.03 | 0.00 | 40 | 1003.7 | |
| 20260504232434 | 22 | 0.0 | 0.0 | 0.00 | 0.03 | 0.00 | 38 | 1003.7 | |
| 20260504231433 | 22 | 0.0 | 0.0 | 0.00 | 0.03 | 0.00 | 38 | 1003.7 | |
| 20260504230434 | 23 | 0.0 | 0.0 | 0.00 | 0.03 | 0.00 | 37 | 1003.7 | |
| 20260504225433 | 23 | 0.0 | 0.0 | 0.00 | 0.03 | 0.00 | 38 | 1004.0 | |
| 20260504224434 | 23 | 0.0 | 0.0 | 0.00 | 0.03 | 0.00 | 37 | 1004.1 | |
| 20260504223433 | 23 | 0.0 | 0.0 | 0.00 | 0.03 | 0.00 | 38 | 1004.1 | |
| 20260504222434 | 23 | 285 | 0.0 | 3.2 | 0.00 | 0.03 | 0.00 | 38 | 1003.9 |
| 20260504221433 | 23 | 264 | 1.6 | 17.7 | 0.00 | 0.03 | 0.00 | 38 | 1004.2 |
| 20260504220434 | 23 | 312 | 0.0 | 12.9 | 0.00 | 0.03 | 0.00 | 38 | 1004.0 |
| 20260504215433 | 23 | 290 | 0.0 | 8.0 | 0.00 | 0.03 | 0.00 | 40 | 1004.2 |
| 20260504214434 | 23 | 282 | 0.0 | 11.3 | 0.00 | 0.03 | 0.00 | 40 | 1004.1 |
| 20260504213453 | 23 | 265 | 3.2 | 11.3 | 0.00 | 0.03 | 0.00 | 40 | 1004.4 |
| 20260504212433 | 23 | 74 | 3.2 | 19.3 | 0.00 | 0.03 | 0.00 | 39 | 1004.1 |
| 20260504211433 | 22 | 309 | 0.0 | 8.0 | 0.00 | 0.03 | 0.00 | 40 | 1004.4 |
| 20260504210434 | 23 | 272 | 0.0 | 12.9 | 0.00 | 0.03 | 0.00 | 42 | 1004.2 |
| 20260504205433 | 22 | 285 | 1.6 | 19.3 | 0.00 | 0.03 | 0.00 | 42 | 1004.3 |
| 20260504204434 | 23 | 283 | 3.2 | 12.9 | 0.00 | 0.03 | 0.00 | 42 | 1004.4 |
| 20260504203434 | 23 | 291 | 1.6 | 12.9 | 0.00 | 0.03 | 0.00 | 42 | 1004.5 |
| 20260504202434 | 22 | 326 | 1.6 | 11.3 | 0.00 | 0.03 | 0.00 | 42 | 1004.6 |
| 20260504201433 | 22 | 279 | 0.0 | 6.4 | 0.00 | 0.03 | 0.00 | 43 | 1004.6 |
| 20260504200434 | 22 | 24 | 0.0 | 11.3 | 0.00 | 0.03 | 0.00 | 44 | 1005.0 |
| 20260504195433 | 22 | 310 | 1.6 | 12.9 | 0.00 | 0.03 | 0.00 | 44 | 1005.1 |
| 20260504194433 | 22 | 279 | 0.0 | 12.9 | 0.00 | 0.03 | 0.00 | 45 | 1005.0 |
| 20260504193433 | 22 | 300 | 3.2 | 19.3 | 0.00 | 0.03 | 0.00 | 46 | 1005.4 |
| 20260504192433 | 22 | 270 | 1.6 | 12.9 | 0.00 | 0.03 | 0.00 | 46 | 1005.2 |
| 20260504191433 | 22 | 307 | 3.2 | 12.9 | 0.00 | 0.03 | 0.00 | 46 | 1005.5 |
| 20260504190434 | 22 | 332 | 3.2 | 19.3 | 0.00 | 0.03 | 0.00 | 46 | 1005.7 |
| 20260504185433 | 22 | 304 | 3.2 | 17.7 | 0.00 | 0.03 | 0.00 | 47 | 1005.7 |
| 20260504184433 | 21 | 0.0 | 0.0 | 0.00 | 0.03 | 0.00 | 50 | 1005.7 | |
| 20260504183433 | 22 | 0.0 | 0.0 | 0.00 | 0.03 | 0.00 | 48 | 1005.8 | |
| 20260504182435 | 21 | 290 | 0.0 | 12.9 | 0.00 | 0.03 | 0.00 | 48 | 1006.0 |
| 20260504181433 | 21 | 292 | 3.2 | 11.3 | 0.00 | 0.03 | 0.00 | 49 | 1006.2 |
| 20260504180433 | 21 | 327 | 0.0 | 1.6 | 0.00 | 0.03 | 0.00 | 51 | 1006.0 |
| 20260504175433 | 21 | 22 | 0.0 | 1.6 | 0.00 | 0.03 | 0.00 | 50 | 1006.4 |
| 20260504174434 | 20 | 295 | 3.2 | 22.5 | 0.00 | 0.03 | 0.00 | 51 | 1006.3 |
| 20260504173433 | 20 | 294 | 3.2 | 16.1 | 0.00 | 0.03 | 0.00 | 50 | 1006.5 |
| 20260504172434 | 20 | 272 | 4.8 | 19.3 | 0.00 | 0.03 | 0.00 | 51 | 1006.6 |
| 20260504171433 | 20 | 329 | 1.6 | 11.3 | 0.00 | 0.03 | 0.00 | 51 | 1006.6 |
| 20260504170433 | 19 | 345 | 1.6 | 12.9 | 0.00 | 0.03 | 0.00 | 53 | 1006.8 |
| 20260504160434 | 18 | 325 | 1.6 | 12.9 | 0.00 | 0.03 | 0.00 | 54 | 1006.9 |
| 20260504150434 | 16 | 317 | 0.0 | 3.2 | 0.00 | 0.03 | 0.00 | 55 | 1007.7 |
| 20260504140433 | 15 | 242 | 3.2 | 16.1 | 0.00 | 0.03 | 0.00 | 55 | 1007.9 |
| 20260504130453 | 12 | 0.0 | 0.0 | 0.00 | 0.03 | 0.00 | 60 | 1008.3 | |
| 20260504110433 | 12 | 0.0 | 0.0 | 0.00 | 0.03 | 0.00 | 60 | 1008.5 | |
| 20260504100434 | 11 | 300 | 0.0 | 8.0 | 0.00 | 0.03 | 0.00 | 59 | 1008.4 |
| 20260504081433 | 11 | 0.0 | 0.0 | 0.00 | 0.03 | 0.00 | 63 | 1008.8 | |
| 20260504080433 | 11 | 0.0 | 0.0 | 0.00 | 0.03 | 0.00 | 64 | 1008.8 | |
| 20260504050433 | 8 | 0.0 | 0.0 | 0.00 | 0.03 | 0.00 | 97 | 1009.5 | |
| 20260504045433 | 8 | 0.0 | 0.0 | 0.00 | 0.03 | 0.00 | 97 | 1009.9 | |
| 20260504044434 | 8 | 0.0 | 0.0 | 0.00 | 0.03 | 0.00 | 96 | 1009.6 | |
| 20260504043433 | 8 | 0.0 | 0.0 | 0.00 | 0.03 | 0.00 | 96 | 1010.1 | |
| 20260504042434 | 8 | 0.0 | 0.0 | 0.00 | 0.03 | 0.00 | 95 | 1009.8 | |
| 20260504040434 | 8 | 0.0 | 0.0 | 0.00 | 0.03 | 0.00 | 94 | 1010.1 |